星链-6131 (STARLINK-6131 )

导读

STARLINK-6131是美国太空探索技术公司 SpaceX 发射的星链卫星,星链是 SpaceX 打造的低轨卫星互联网星座计划。该星于北京时间2023年6月23日发射,加入近地轨道星座组网,旨在为全球提供高速低延迟互联网服务,推进星链全球覆盖部署进程。

基本信息
目录编号:
57107
目录名称:
STARLINK-6131
国际标识:
2023-090G
轨道中心:
EARTH
卫星名称:
星链-6131
卫星全名:
星链-6131 (STARLINK-6131 )
卫星状态:
在轨 (已飞行1170 天)
发射日期:
2023-06-23 UTC
国别 :
美国 (US)
星等 :
--
轨道信息
数据来源 国际轨道数据 AOE轨道数据
星历时间 2026-09-05T02:29:28+0800
13小时前
查看轨道信息
2026-09-01T08:00:00+0800
4天前
查看轨道信息
半长轴 6861.191km 6861.12km
偏心率 0.0001364 0.000003
轨道倾角 43.002° 43.003°
近地点辐角 264.000° 182.470°
升交点赤经 349.927° 11.221°
平近点角 96.070° 298.547°
近地点 482.118km 482.962km
远地点 483.99km 483.004km
周期 94.267分钟 94.265分钟
每日圈数 15.275785 15.276024
详细信息
固有亮度:
5
最大亮度:
2.4
卫星平台:
Starlink v1.5
覆盖范围:
全球
运营商:
太空探索技术公司
运营商所在国:
美国
制造商(研发单位):
太空探索技术公司
制造商所在国:
美国
使用方式:
暂无
卫星简介
星链(Starlink)计划是由太空探索技术公司(SpaceX)提出的一个巨型低轨卫星互联网星座项目,计划在2019年至2024年间在太空搭建由约1.2万颗卫星组成的“星链”网络,其中1584颗将部署在地球上空550千米处的近地轨道,并从2020年开始工作。该卫星仍在工作。
2D轨道图
3D轨道图
轨道高度分析图
轨道倾角分析图
轨道综合分析图
查看轨道综合分析图
交会数据列表
事件ID 空间交会对象 最接近时刻(TCA) 交会距离 交会风险概率(CRP) 交会风险指数(CRI) 操作
CDM_260907-140305-710706-292721
2026-09-07T
14:03:04+0000
0.352 km
远距离
3.348636E-4 高风险 0.85
CDM_260905-235305-710706-783322
2026-09-05T
23:53:29+0000
0.650 km
远距离
2.350519E-5 中风险 0.62
CDM_260907-153705-710706-292721
2026-09-07T
15:37:13+0000
1.812 km
极远距离
2.921949E-6 低风险 0.44
CDM_260906-021405-710706-783322
2026-09-06T
02:14:44+0000
1.296 km
极远距离
2.352242E-6 低风险 0.42
CDM_260907-122805-710706-292721
2026-09-07T
12:28:55+0000
2.471 km
极远距离
1.430038E-6 低风险 0.38
CDM_260906-004005-710706-783321
2026-09-06T
00:40:34+0000
2.305 km
极远距离
5.54096E-7 极低风险 0.3
CDM_260906-012705-710706-783322
2026-09-06T
01:27:39+0000
2.371 km
极远距离
5.284084E-7 极低风险 0.29